Weather History for Klawock, AK

Change the Weather History Date:

Wednesday, January 4, 2012

  Actual Average Record
Temperature  
Mean Temperature 42 °F -  
Max Temperature 46 °F 36 °F 51 °F (2003)
Min Temperature 39 °F 29 °F 18 °F (2004)
Degree Days  
Heating Degree Days 22    
Moisture  
Dew Point 39 °F    
Average Humidity 91    
Maximum Humidity 100    
Minimum Humidity 80    
Precipitation  
Precipitation 1.09 in - - ()
Sea Level Pressure  
Sea Level Pressure 29.13 in    
Wind  
Wind Speed 9 mph (SSW)    
Max Wind Speed 26 mph    
Max Gust Speed 52 mph    
Visibility 8 miles    
Events Rain    
Averages and records for this station are not official NWS values.
T = Trace of Precipitation, MM = Missing Value Source: NWS Daily Summary

Daily Weather History Graph

Daily Weather History Graph

Search for Another Location

Airport:

Trip Planner

Search our weather history database for the weather conditions in past years. The results will help you decide how hot, cold, wet, or windy it might be!

Date:

Astronomy

Jan. 04, 2012 Rise Set
Actual Time 8:19 AM AKST 3:34 PM AKST
Civil Twilight 7:34 AM AKST 4:20 PM AKST
Nautical Twilight 6:46 AM AKST 5:08 PM AKST
Astronomical Twilight 6:01 AM AKST 5:53 PM AKST
Moon 12:07 PM AKST (1/4) 4:07 AM AKST (1/4)
Length of Visible Light 8h 46m
Length of Day
7h 14m
Waxing Gibbous, 81% of the Moon is Illuminated
Jan 4
Waxing Gibbous
Jan 8
Full
Jan 16
Last Quarter
Jan 22
New
Jan 30
First Quarter

Hourly Weather History & Observations

Time (AKST) Temp. Windchill Dew Point Humidity Pressure Visibility Wind Dir Wind Speed Gust Speed Precip Events Conditions
12:53 AM 42.1 °F 35.7 °F 39.0 °F 89% 28.87 in 5.0 mi NE 11.5 mph 25.3 mph 0.08 in Rain Rain
1:53 AM 41.0 °F 33.1 °F 39.0 °F 93% 28.79 in 9.0 mi NNE 15.0 mph 20.7 mph 0.06 in Rain Light Rain
3:16 AM 42.8 °F 41.1 °F 39.2 °F 87% 28.73 in 4.0 mi Variable 3.5 mph - 0.02 in Rain Light Rain
3:34 AM 42.8 °F - 41.0 °F 93% 28.74 in 2.5 mi Calm Calm - 0.05 in Rain Rain
3:51 AM 42.8 °F 39.3 °F 41.0 °F 93% 28.75 in 5.0 mi Variable 5.8 mph - 0.08 in Rain Light Rain
3:53 AM 43.0 °F 38.8 °F 42.1 °F 97% 28.75 in 6.0 mi Variable 6.9 mph - 0.08 in Rain Light Rain
4:53 AM 46.0 °F 37.2 °F 41.0 °F 83% 28.88 in 10.0 mi SSW 26.5 mph 51.8 mph 0.04 in Rain Light Rain
5:01 AM 44.6 °F 35.7 °F 39.2 °F 81% 28.91 in 10.0 mi SSW 24.2 mph 42.6 mph 0.00 in Rain Light Rain
5:50 AM 42.8 °F 35.1 °F 39.2 °F 87% 29.03 in 5.0 mi SSW 16.1 mph 31.1 mph 0.02 in Rain Light Rain
5:53 AM 42.1 °F 33.9 °F 39.9 °F 92% 29.04 in 6.0 mi SSW 17.3 mph 29.9 mph 0.02 in Rain Light Rain
6:53 AM 41.0 °F 33.5 °F 37.9 °F 89% 29.11 in 9.0 mi SSW 13.8 mph 20.7 mph 0.08 in Rain Light Rain
7:31 AM 39.2 °F 35.9 °F 39.2 °F 100% 29.14 in 10.0 mi Variable 4.6 mph - 0.02 in Rain Light Rain
7:53 AM 41.0 °F 37.1 °F 39.9 °F 96% 29.15 in 8.0 mi SSW 5.8 mph - 0.03 in Rain Light Rain
8:53 AM 43.0 °F 38.8 °F 42.1 °F 97% 29.18 in 10.0 mi Variable 6.9 mph - 0.01 in Rain Light Rain
9:53 AM 45.0 °F 41.2 °F 42.1 °F 90% 29.20 in 10.0 mi Variable 6.9 mph - 0.02 in Rain Light Rain
10:53 AM 44.1 °F 41.5 °F 39.9 °F 85% 29.20 in 10.0 mi Variable 4.6 mph - 0.00 in   Mostly Cloudy
11:53 AM 45.0 °F 43.5 °F 39.0 °F 80% 29.19 in 10.0 mi Variable 3.5 mph - N/A   Overcast
12:53 PM 42.1 °F 36.6 °F 39.9 °F 92% 29.20 in 8.0 mi WSW 9.2 mph - 0.04 in Rain Light Rain
1:53 PM 41.0 °F 38.0 °F 39.9 °F 96% 29.21 in 7.0 mi SSW 4.6 mph - 0.04 in Rain Light Rain
2:53 PM 41.0 °F 36.4 °F 37.9 °F 89% 29.22 in 10.0 mi Variable 6.9 mph - 0.01 in Rain Light Rain
3:15 PM 41.0 °F 39.0 °F 37.4 °F 87% 29.23 in 5.0 mi Variable 3.5 mph - 0.04 in Rain Rain
3:53 PM 39.9 °F 37.8 °F 39.0 °F 97% 29.24 in 6.0 mi Variable 3.5 mph - 0.11 in Rain Light Rain
4:18 PM 39.2 °F 34.2 °F 37.4 °F 93% 29.25 in 10.0 mi SSE 6.9 mph - 0.01 in Rain Light Rain
4:53 PM 39.9 °F 35.8 °F 37.9 °F 93% 29.26 in 10.0 mi Variable 5.8 mph - 0.04 in Rain Light Rain
5:04 PM 39.2 °F 34.2 °F 37.4 °F 93% 29.26 in 10.0 mi Variable 6.9 mph - 0.00 in Rain Light Rain
5:53 PM 39.0 °F 34.8 °F 37.0 °F 93% 29.28 in 7.0 mi Variable 5.8 mph - 0.05 in Rain Light Rain
6:53 PM 39.0 °F 34.8 °F 37.0 °F 93% 29.29 in 10.0 mi Variable 5.8 mph - 0.07 in Rain Light Rain
7:53 PM 39.0 °F 34.0 °F 37.0 °F 93% 29.32 in 7.0 mi Variable 6.9 mph - 0.10 in Rain Light Rain
8:53 PM 39.0 °F 33.4 °F 37.9 °F 96% 29.35 in 8.0 mi SSW 8.1 mph 20.7 mph 0.07 in Rain Light Rain
9:53 PM 39.9 °F 35.1 °F 37.9 °F 93% 29.38 in 10.0 mi Variable 6.9 mph - 0.07 in Rain Light Rain
10:53 PM 39.9 °F 36.7 °F 37.9 °F 93% 29.42 in 9.0 mi Variable 4.6 mph - 0.03 in Rain Light Rain
11:53 PM 39.0 °F 34.0 °F 37.0 °F 93% 29.44 in 10.0 mi SSE 6.9 mph - 0.04 in Rain Light Rain